カタログに戻る

HULIANWANG DIGUI-172

運用中科学LEO
NORAD 69575·PAYLOAD·🇨🇳 China

打ち上げ Jun 17, 2026 から Wenchang Space Launch Site

Loading…

次のパス (今後24時間)

TLE

最新Source: Space-Track

元期: Sep 14, 2026, 01:50 UTC

1 69575U 26137D   26257.07656363 -.00000098  00000-0  56852-4 0  9997
2 69575  49.9965 277.0825 0000187 321.6330  38.4529 13.29326173 12158

AllMySatでHULIANWANG DIGUI-172をリアルタイム追跡

Download on the App Store